Regional Weather Roundup
Issued by NWS

Home | Current Version | Previous Version | Text Only | Print | Product List | Glossary On
Versions: 1 2 3 4 5 6 7 8 9 10 11 12 13 14 15 16 17 18 19 20 21 22 23 24 25 26 27 28 29 30 31 32 33 34 35 36 37 38 39 40 41 42 43 44 45 46 47 48 49 50
973
ASUS44 KLIX 011001
RWRLA
LOUISIANA WEATHER ROUNDUP
NATIONAL WEATHER SERVICE NEW ORLEANS LA
400 AM CST SUN MAR 01 2015

NOTE: "FAIR" INDICATES FEW OR NO CLOUDS BELOW 12,000 FEET WITH NO
      SIGNIFICANT WEATHER AND/OR OBSTRUCTIONS TO VISIBILITY.
      SKY/WX - SKY CONDITION AND SIGNIFICANT WEATHER.
      TMP - AIR TEMPERATURE.    DP   - DEWPOINT TEMPERATURE.
      RH  - RELATIVE HUMIDITY.  PRES - PRESSURE.
      HX  - HEAT INDEX.         WCI  - WIND CHILL INDEX.

*  THESE STATIONS ARE NOT NWS OR FAA STATIONS AND ARE NOT UNDER
   NWS QUALITY CONTROL.

LAZ040-048-061>063-065-066-069-011100-
SOUTHEAST LOUISIANA

CITY           SKY/WX    TMP DP  RH WIND       PRES   REMARKS
N.O. AUDUBON   NOT AVBL
N.O. INTL ARPT CLOUDY    57  55  93 E9        30.28R FOG
N.O. LAKEFRONT CLOUDY    57  54  89 E15       30.29S FOG
SLIDELL        CLOUDY    54  53  97 E8        30.29S FOG
BATON ROUGE    CLOUDY    56  54  93 E14       30.26S
BOOTHVILLE     CLOUDY    59  58  96 E8        30.27F
BELLE CHASSE   CLOUDY    58  55  90 E10       30.28R FOG
BOGALUSA*        N/A     57  52  82 CALM      30.31F
GALLIANO*      CLOUDY    54  53  98 CALM      30.27R FOG
NEW ROADS*     NOT AVBL
GONZALES*      NOT AVBL
HAMMOND*       NOT AVBL
HOUMA*         CLOUDY    60  59  96 E9G16     30.26F
PORT FOURCHON* CLOUDY    61  59  94 E7        30.29R FOG

$$

LAZ041-044-053-054-011100-
SOUTHWEST LOUISIANA

CITY           SKY/WX    TMP DP  RH WIND       PRES   REMARKS
LAKE CHARLES   LGT RAIN  57  55  93 SE8       30.20F
LAFAYETTE      CLOUDY    57  54  89 E7        30.23F
PATTERSON      CLOUDY    59  57  94 E10       30.25F
SALT POINT       N/A     59  58  96 VRB7      30.20F
NEW IBERIA     CLOUDY    57  55  93 E12       30.24F
CHENAULT AIRPK NOT AVBL

$$

LAZ027-028-011100-
CENTRAL LOUISIANA

CITY           SKY/WX    TMP DP  RH WIND       PRES   REMARKS
FORT POLK      NOT AVBL
ALEXANDRIA INT CLOUDY    52  46  80 E5        30.23S
ALEXANDRIA     CLOUDY    50  41  71 CALM      30.25S

$$

LAZ001-002-011100-
NORTHWEST LOUISIANA

CITY           SKY/WX    TMP DP  RH WIND       PRES   REMARKS
SHREVEPORT     CLOUDY    41  38  89 N7        30.26F
BARKSDALE AFB  NOT AVBL
DTN SHREVEPORT CLOUDY    40  37  89 N6        30.28F

$$

LAZ014-016-011100-
NORTHEAST LOUISIANA

CITY           SKY/WX    TMP DP  RH WIND       PRES   REMARKS
MONROE         CLOUDY    44  39  82 N8        30.30R
TALLULAH       CLOUDY    48  41  76 SE3       30.28F

$$




USA.gov is the U.S. government's official web portal to all federal, state and local government web resources and services.